GW5875 Weather Reports


Display with metric or nautical units.
time (UTC)temp
F
wind
direction
speed
MPH
gust
MPH
rain 1hr
in
rain 24hr
in
rain mn
in
humidity
%
barometer
mb
20260504200435 79 211 2.0 3.0 0.00 0.00 0.00 46 1009.3
20260504195931 80 244 6.0 9.0 0.00 0.00 0.00 43 1009.5
20260504195427 80 160 3.0 5.0 0.00 0.00 0.00 46 1009.5
20260504194924 79 208 8.0 11.0 0.00 0.00 0.00 42 1009.6
20260504194420 80 208 6.0 12.0 0.00 0.00 0.00 42 1009.8
20260504193916 80 227 5.0 6.0 0.00 0.00 0.00 46 1009.9
20260504193414 80 216 8.0 12.0 0.00 0.00 0.00 43 1010.2
20260504192912 79 180 6.0 6.0 0.00 0.00 0.00 44 1009.9
20260504192409 79 152 6.0 11.0 0.00 0.00 0.00 43 1010.2
20260504191908 79 207 10.0 15.0 0.00 0.00 0.00 43 1010.1
20260504191405 79 255 5.0 6.0 0.00 0.00 0.00 43 1010.2
20260504190900 80 117 5.0 8.0 0.00 0.00 0.00 44 1010.3
20260504190356 79 171 4.0 5.0 0.00 0.00 0.00 44 1010.2
20260504185853 79 239 5.0 5.0 0.00 0.00 0.00 42 1010.6
20260504185350 78 203 6.0 9.0 0.00 0.00 0.00 44 1010.3
20260504184846 78 89 4.0 6.0 0.00 0.00 0.00 43 1010.6
20260504184342 78 220 6.0 8.0 0.00 0.00 0.00 45 1010.8
20260504183838 78 247 6.0 8.0 0.00 0.00 0.00 45 1010.7
20260504183336 78 207 4.0 5.0 0.00 0.00 0.00 46 1010.9
20260504182833 78 206 8.0 13.0 0.00 0.00 0.00 44 1010.9
20260504182331 78 207 6.0 9.0 0.00 0.00 0.00 44 1010.9
20260504181827 78 161 3.0 5.0 0.00 0.00 0.00 43 1010.4
20260504181325 79 146 5.0 6.0 0.00 0.00 0.00 44 1010.7
20260504180824 78 137 2.0 4.0 0.00 0.00 0.00 47 1010.6
20260504180322 78 222 7.0 9.0 0.00 0.00 0.00 44 1010.9
20260504175820 77 232 2.0 4.0 0.00 0.00 0.00 49 1011.0
20260504175316 77 207 7.0 9.0 0.00 0.00 0.00 44 1011.1
20260504174815 78 194 8.0 9.0 0.00 0.00 0.00 43 1011.2
20260504174311 77 194 5.0 6.0 0.00 0.00 0.00 45 1011.3
20260504173808 77 219 8.0 11.0 0.00 0.00 0.00 44 1011.5
20260504173305 77 235 4.0 6.0 0.00 0.00 0.00 44 1011.7
20260504172802 76 164 3.0 5.0 0.00 0.00 0.00 45 1011.8
20260504172259 76 250 12.0 16.0 0.00 0.00 0.00 43 1011.9
20260504171754 77 241 9.0 15.0 0.00 0.00 0.00 44 1012.0
20260504171252 77 192 10.0 12.0 0.00 0.00 0.00 44 1011.7
20260504170749 77 193 4.0 5.0 0.00 0.00 0.00 45 1011.7
20260504170246 76 242 12.0 16.0 0.00 0.00 0.00 45 1011.9
20260504160204 74 246 4.0 5.0 0.00 0.00 0.00 51 1012.5
20260504151132 72 263 12.0 16.0 0.00 0.00 0.00 51 1012.7
20260504150630 73 193 8.0 11.0 0.00 0.00 0.00 53 1012.6
20260504150126 72 255 9.0 13.0 0.00 0.00 0.00 53 1012.6
20260504141055 69 216 3.0 4.0 0.00 0.00 0.00 62 1012.9
20260504140551 69 169 2.0 3.0 0.00 0.00 0.00 62 1013.0
20260504130516 65 194 3.0 4.0 0.00 0.00 0.00 68 1013.0
20260504110403 52 132 0.0 0.0 0.00 0.00 0.00 95 1012.0
20260504100320 53 131 0.0 0.0 0.00 0.00 0.00 93 1012.4
20260504081714 56 143 0.0 0.0 0.00 0.00 0.00 88 1012.5
20260504081210 57 138 0.0 0.0 0.00 0.00 0.00 86 1012.6
20260504080706 58 152 0.0 0.0 0.00 0.00 0.00 84 1012.6
20260504080203 57 161 0.0 0.0 0.00 0.00 0.00 86 1012.6
20260504070131 57 144 0.0 0.0 0.00 0.00 0.00 87 1013.0
20260504050520 61 163 0.0 0.0 0.00 0.00 0.00 76 1013.5
20260504050016 62 147 0.0 1.0 0.00 0.00 0.00 76 1013.3
20260504045513 60 190 1.0 1.0 0.00 0.00 0.00 76 1013.5
20260504045008 61 144 0.0 1.0 0.00 0.00 0.00 78 1013.5
20260504044506 61 140 0.0 1.0 0.00 0.00 0.00 77 1013.4
20260504044003 61 136 0.0 1.0 0.00 0.00 0.00 78 1013.4
20260504043500 60 162 0.0 0.0 0.00 0.00 0.00 80 1013.4
20260504042958 60 218 0.0 1.0 0.00 0.00 0.00 81 1013.3
20260504042454 60 150 0.0 0.0 0.00 0.00 0.00 82 1013.5
20260504041951 59 140 0.0 0.0 0.00 0.00 0.00 83 1013.7
20260504041447 60 150 0.0 0.0 0.00 0.00 0.00 82 1013.6
20260504040943 59 129 0.0 0.0 0.00 0.00 0.00 82 1013.7
20260504040441 60 147 0.0 0.0 0.00 0.00 0.00 81 1013.8
20260504035936 60 134 0.0 0.0 0.00 0.00 0.00 79 1013.8
20260504035434 60 150 0.0 0.0 0.00 0.00 0.00 81 1013.8
20260504034931 59 127 0.0 0.0 0.00 0.00 0.00 82 1013.7
20260504034428 59 128 1.0 1.0 0.00 0.00 0.00 81 1013.8
20260504033925 60 159 0.0 1.0 0.00 0.00 0.00 80 1013.6
20260504033423 60 143 0.0 1.0 0.00 0.00 0.00 80 1013.7
20260504032920 60 161 0.0 0.0 0.00 0.00 0.00 79 1013.8
20260504032417 60 143 0.0 0.0 0.00 0.00 0.00 80 1013.8
20260504031913 60 143 0.0 0.0 0.00 0.00 0.00 80 1013.7
20260504031411 60 148 0.0 0.0 0.00 0.00 0.00 79 1013.9
20260504030907 60 158 0.0 0.0 0.00 0.00 0.00 79 1013.8
20260504030404 61 149 0.0 0.0 0.00 0.00 0.00 79 1013.8
20260504025900 61 144 0.0 0.0 0.00 0.00 0.00 79 1013.9
20260504025357 61 145 0.0 0.0 0.00 0.00 0.00 80 1013.6
20260504024854 61 145 0.0 0.0 0.00 0.00 0.00 79 1013.7
20260504024350 62 144 0.0 0.0 0.00 0.00 0.00 78 1013.8
20260504023848 62 149 0.0 0.0 0.00 0.00 0.00 77 1013.6
20260504023344 62 154 0.0 0.0 0.00 0.00 0.00 76 1013.6
20260504022839 63 147 0.0 0.0 0.00 0.00 0.00 74 1013.3
20260504022337 64 146 0.0 0.0 0.00 0.00 0.00 70 1013.4
20260504021833 64 143 0.0 0.0 0.00 0.00 0.00 69 1013.7
20260504021331 65 142 0.0 0.0 0.00 0.00 0.00 66 1013.6
20260504020828 66 140 0.0 0.0 0.00 0.00 0.00 64 1013.4
20260504020324 65 146 0.0 0.0 0.00 0.00 0.00 65 1013.5
20260504015820 65 134 0.0 0.0 0.00 0.00 0.00 64 1013.5
20260504015317 66 148 0.0 0.0 0.00 0.00 0.00 64 1013.6
20260504014813 68 159 0.0 0.0 0.00 0.00 0.00 60 1013.4
20260504014309 68 143 0.0 0.0 0.00 0.00 0.00 56 1013.3
20260504013807 69 143 0.0 0.0 0.00 0.00 0.00 55 1013.5
20260504013305 69 144 1.0 1.0 0.00 0.00 0.00 55 1013.5
20260504012800 70 146 0.0 0.0 0.00 0.00 0.00 54 1013.2
20260504012259 70 137 0.0 0.0 0.00 0.00 0.00 52 1013.4
20260504011755 70 147 0.0 1.0 0.00 0.00 0.00 53 1013.2
20260504011252 71 147 0.0 0.0 0.00 0.00 0.00 53 1013.3
20260504010748 71 148 0.0 0.0 0.00 0.00 0.00 52 1013.1
20260504010244 71 141 0.0 0.0 0.00 0.00 0.00 52 1013.1
20260504005741 71 141 1.0 1.0 0.00 0.00 0.00 51 1013.3
20260504005238 71 144 0.0 0.0 0.00 0.00 0.00 51 1013.1
20260504004736 72 150 0.0 0.0 0.00 0.00 0.00 52 1013.1
20260504004232 73 145 0.0 1.0 0.00 0.00 0.00 51 1013.2
20260504003729 73 166 1.0 1.0 0.00 0.00 0.00 49 1013.1
20260504003226 74 149 0.0 0.0 0.00 0.00 0.00 48 1013.4
20260504002723 75 149 0.0 0.0 0.00 0.00 0.00 48 1013.5
20260504002219 76 150 0.0 0.0 0.00 0.00 0.00 47 1013.4
20260504001718 77 152 0.0 1.0 0.00 0.00 0.00 45 1013.7
20260504001214 78 150 0.0 0.0 0.00 0.00 0.00 44 1013.6
20260504000711 78 161 0.0 1.0 0.00 0.00 0.00 43 1013.6
20260504000208 78 156 0.0 0.0 0.00 0.00 0.00 44 1013.4
20260503235706 78 167 1.0 1.0 0.00 0.00 0.00 41 1013.5
20260503235203 78 179 1.0 1.0 0.00 0.00 0.00 42 1013.6
20260503234700 78 184 2.0 3.0 0.00 0.00 0.00 42 1013.4
20260503234159 79 244 4.0 5.0 0.00 0.00 0.00 41 1013.6
20260503233655 79 198 2.0 3.0 0.00 0.00 0.00 42 1013.7
20260503233151 79 187 2.0 3.0 0.00 0.00 0.00 41 1013.7
20260503232648 80 184 2.0 3.0 0.00 0.00 0.00 42 1013.9
20260503232145 80 122 1.0 3.0 0.00 0.00 0.00 41 1013.6
20260503231643 80 229 5.0 5.0 0.00 0.00 0.00 39 1013.7
20260503231139 81 231 1.0 1.0 0.00 0.00 0.00 40 1013.6
20260503230636 81 170 0.0 0.0 0.00 0.00 0.00 43 1013.8
20260503230134 81 225 3.0 4.0 0.00 0.00 0.00 40 1013.5
20260503225631 80 151 0.0 1.0 0.00 0.00 0.00 41 1013.6
20260503225130 80 196 3.0 4.0 0.00 0.00 0.00 39 1013.7
20260503224628 80 239 4.0 4.0 0.00 0.00 0.00 39 1013.7
20260503224126 80 163 1.0 1.0 0.00 0.00 0.00 42 1013.8
20260503223624 80 207 2.0 4.0 0.00 0.00 0.00 39 1013.7
20260503223119 80 233 4.0 5.0 0.00 0.00 0.00 39 1013.9
20260503222617 79 202 2.0 4.0 0.00 0.00 0.00 39 1014.2
20260503222115 79 192 4.0 6.0 0.00 0.00 0.00 39 1014.2
20260503221613 79 192 2.0 3.0 0.00 0.00 0.00 40 1014.3
20260503221110 78 213 8.0 11.0 0.00 0.00 0.00 38 1014.5
20260503220607 79 265 10.0 12.0 0.00 0.00 0.00 39 1014.5
20260503220103 79 248 8.0 9.0 0.00 0.00 0.00 39 1014.3
20260503215600 79 244 5.0 6.0 0.00 0.00 0.00 43 1014.5
20260503215057 79 231 6.0 9.0 0.00 0.00 0.00 38 1014.3
20260503214555 80 240 6.0 6.0 0.00 0.00 0.00 39 1014.3
20260503214051 80 254 3.0 4.0 0.00 0.00 0.00 37 1014.5
20260503213550 80 167 2.0 3.0 0.00 0.00 0.00 41 1015.0
20260503213046 79 175 2.0 3.0 0.00 0.00 0.00 43 1015.0
20260503212544 78 147 1.0 1.0 0.00 0.00 0.00 40 1014.7
20260503212042 79 237 8.0 11.0 0.00 0.00 0.00 39 1015.1
20260503211538 78 214 5.0 6.0 0.00 0.00 0.00 43 1015.2
20260503211034 79 207 4.0 5.0 0.00 0.00 0.00 39 1015.1
20260503210531 78 199 4.0 4.0 0.00 0.00 0.00 43 1015.2
20260503210026 78 243 3.0 4.0 0.00 0.00 0.00 39 1015.4
20260503205523 78 234 5.0 8.0 0.00 0.00 0.00 38 1015.3
20260503205020 78 249 4.0 5.0 0.00 0.00 0.00 41 1015.5
20260503204517 79 237 9.0 13.0 0.00 0.00 0.00 36 1015.7
20260503204014 78 268 4.0 5.0 0.00 0.00 0.00 40 1015.8
20260503203511 78 209 3.0 4.0 0.00 0.00 0.00 40 1015.7
20260503203008 78 201 2.0 3.0 0.00 0.00 0.00 40 1015.9
20260503202506 78 200 3.0 4.0 0.00 0.00 0.00 39 1016.0
20260503202004 79 187 8.0 9.0 0.00 0.00 0.00 37 1016.3
20260503201501 78 223 2.0 3.0 0.00 0.00 0.00 42 1016.4
20260503200959 78 207 4.0 4.0 0.00 0.00 0.00 39 1016.6